When you browse on this site, cookies collect data to enhance your experience and personalize the content and advertising you see.
Visit our Privacy Policy to learn more. By continuing to use the site, you agree to this use of cookies and data.
  • En España
  • Lista de países
  • Para 7 días
  • Temperatura del agua
  • Mapa Satelital
  • El tiempo en el mapa
  • Informadores
  • user-avatar
    Iniciar sesión

    Tiempo cada hora Parakou

    Hoy, 12 Diciembre, Miércoles

    Tiempo Temperatura Precipitaciones Viento Presión Humedad
    00:00 +26°C° 0 mm 1 mps 729 mmHg 18%
    01:00 +26°C° 0 mm 1 mps 729 mmHg 19%
    02:00 +25°C° 0 mm 1 mps 728 mmHg 19%
    03:00 +25°C° 0 mm 1 mps 728 mmHg 20%
    04:00 +25°C° 0 mm 1 mps 728 mmHg 21%
    05:00 +24°C° 0 mm 1 mps 728 mmHg 21%
    06:00 +24°C° 0 mm 1 mps 729 mmHg 22%
    07:00 +26°C° 0 mm 2 mps 729 mmHg 20%
    08:00 +29°C° 0 mm 2 mps 730 mmHg 18%
    09:00 +31°C° 0 mm 2 mps 730 mmHg 17%
    10:00 +34°C° 0 mm 2 mps 730 mmHg 15%
    11:00 +36°C° 0 mm 2 mps 730 mmHg 14%
    12:00 +38°C° 0 mm 2 mps 729 mmHg 12%
    13:00 +38°C° 0 mm 2 mps 729 mmHg 12%
    14:00 +39°C° 0 mm 2 mps 728 mmHg 12%
    15:00 +39°C° 0 mm 1 mps 727 mmHg 13%
    16:00 +36°C° 0 mm 1 mps 727 mmHg 14%
    17:00 +34°C° 0 mm 1 mps 727 mmHg 16%
    18:00 +33°C° 0 mm 1 mps 727 mmHg 18%
    19:00 +32°C° 0 mm 1 mps 728 mmHg 18%
    20:00 +31°C° 0 mm 1 mps 729 mmHg 19%
    21:00 +30°C° 0 mm 1 mps 729 mmHg 20%
    22:00 +29°C° 0 mm 1 mps 729 mmHg 21%
    23:00 +29°C° 0 mm 1 mps 729 mmHg 21%

    Mañana, 13 Diciembre, Jueves

    Tiempo Temperatura Precipitaciones Viento Presión Humedad
    00:00 +28°C° 0 mm 1 mps 729 mmHg 22%
    01:00 +27°C° 0 mm 1 mps 729 mmHg 22%
    02:00 +27°C° 0 mm 1 mps 729 mmHg 22%
    03:00 +26°C° 0 mm 1 mps 729 mmHg 22%
    04:00 +26°C° 0 mm 1 mps 729 mmHg 22%
    05:00 +25°C° 0 mm 1 mps 729 mmHg 23%
    06:00 +22°C° 0 mm 0 mps 729 mmHg 24%
    07:00 +27°C° 0 mm 1 mps 730 mmHg 21%
    08:00 +29°C° 0 mm 2 mps 730 mmHg 17%
    09:00 +32°C° 0 mm 2 mps 731 mmHg 14%
    10:00 +35°C° 0 mm 2 mps 730 mmHg 13%
    11:00 +37°C° 0 mm 3 mps 730 mmHg 12%
    12:00 +38°C° 0 mm 3 mps 729 mmHg 11%
    13:00 +39°C° 0 mm 3 mps 729 mmHg 11%
    14:00 +39°C° 0 mm 3 mps 728 mmHg 11%
    15:00 +40°C° 0 mm 3 mps 727 mmHg 11%
    16:00 +38°C° 0 mm 2 mps 727 mmHg 12%
    17:00 +36°C° 0 mm 2 mps 727 mmHg 14%
    18:00 +33°C° 0 mm 1 mps 728 mmHg 15%
    19:00 +32°C° 0 mm 2 mps 728 mmHg 16%
    20:00 +31°C° 0 mm 2 mps 729 mmHg 17%
    21:00 +31°C° 0 mm 2 mps 729 mmHg 17%
    22:00 +30°C° 0 mm 2 mps 729 mmHg 18%
    23:00 +29°C° 0 mm 2 mps 729 mmHg 18%

    Pasado mañana, 14 Diciembre, Viernes

    Tiempo Temperatura Precipitaciones Viento Presión Humedad
    00:00 +28°C° 0 mm 2 mps 729 mmHg 19%
    01:00 +28°C° 0 mm 2 mps 729 mmHg 19%
    02:00 +27°C° 0 mm 2 mps 728 mmHg 18%
    03:00 +27°C° 0 mm 2 mps 728 mmHg 18%
    04:00 +26°C° 0 mm 2 mps 728 mmHg 19%
    05:00 +25°C° 0 mm 1 mps 729 mmHg 21%
    06:00 +25°C° 0 mm 1 mps 729 mmHg 22%
    07:00 +27°C° 0 mm 2 mps 730 mmHg 19%
    08:00 +30°C° 0 mm 2 mps 730 mmHg 16%
    09:00 +33°C° 0 mm 3 mps 731 mmHg 13%
    10:00 +35°C° 0 mm 3 mps 730 mmHg 12%
    11:00 +37°C° 0 mm 3 mps 730 mmHg 11%
    12:00 +39°C° 0 mm 3 mps 729 mmHg 9%
    13:00 +40°C° 0 mm 3 mps 728 mmHg 9%
    14:00 +40°C° 0 mm 3 mps 728 mmHg 9%
    15:00 +40°C° 0 mm 3 mps 727 mmHg 9%
    16:00 +38°C° 0 mm 2 mps 727 mmHg 11%
    17:00 +36°C° 0 mm 2 mps 727 mmHg 12%
    18:00 +34°C° 0 mm 1 mps 727 mmHg 13%
    19:00 +34°C° 0 mm 2 mps 728 mmHg 14%
    20:00 +32°C° 0 mm 2 mps 728 mmHg 15%
    21:00 +31°C° 0 mm 2 mps 729 mmHg 15%
    22:00 +30°C° 0 mm 2 mps 729 mmHg 16%
    23:00 +29°C° 0 mm 1 mps 729 mmHg 16%

    15 Diciembre, Sábado

    Tiempo Temperatura Precipitaciones Viento Presión Humedad
    00:00 +28°C° 0 mm 1 mps 729 mmHg 16%
    01:00 +28°C° 0 mm 1 mps 728 mmHg 19%
    02:00 +27°C° 0 mm 1 mps 728 mmHg 21%
    03:00 +26°C° 0 mm 1 mps 728 mmHg 24%
    04:00 +26°C° 0 mm 1 mps 728 mmHg 28%
    05:00 +25°C° 0 mm 1 mps 729 mmHg 32%
    06:00 +22°C° 0 mm 0 mps 729 mmHg 37%
    07:00 +27°C° 0 mm 1 mps 729 mmHg 30%
    08:00 +29°C° 0 mm 1 mps 730 mmHg 23%
    09:00 +32°C° 0 mm 2 mps 731 mmHg 16%
    10:00 +35°C° 0 mm 2 mps 730 mmHg 14%
    11:00 +37°C° 0 mm 3 mps 729 mmHg 11%
    12:00 +39°C° 0 mm 3 mps 729 mmHg 9%
    13:00 +39°C° 0 mm 3 mps 728 mmHg 9%
    14:00 +40°C° 0 mm 3 mps 727 mmHg 8%
    15:00 +40°C° 0 mm 2 mps 727 mmHg 8%
    16:00 +38°C° 0 mm 2 mps 727 mmHg 9%
    17:00 +36°C° 0 mm 2 mps 727 mmHg 11%
    18:00 +33°C° 0 mm 1 mps 727 mmHg 12%
    19:00 +32°C° 0 mm 1 mps 728 mmHg 12%
    20:00 +31°C° 0 mm 1 mps 728 mmHg 13%
    21:00 +30°C° 0 mm 1 mps 729 mmHg 14%
    22:00 +30°C° 0 mm 1 mps 729 mmHg 14%
    23:00 +29°C° 0 mm 1 mps 728 mmHg 15%

    16 Diciembre, Domingo

    Tiempo Temperatura Precipitaciones Viento Presión Humedad
    00:00 +28°C° 0 mm 1 mps 728 mmHg 15%
    01:00 +27°C° 0 mm 1 mps 728 mmHg 18%
    02:00 +27°C° 0 mm 1 mps 728 mmHg 22%
    03:00 +26°C° 0 mm 1 mps 728 mmHg 25%
    04:00 +25°C° 0 mm 1 mps 728 mmHg 30%
    05:00 +23°C° 0 mm 0 mps 728 mmHg 35%
    06:00 +22°C° 0 mm 0 mps 729 mmHg 40%
    07:00 +25°C° 0 mm 0 mps 729 mmHg 36%
    08:00 +29°C° 0 mm 1 mps 730 mmHg 31%
    09:00 +32°C° 0 mm 1 mps 730 mmHg 26%
    10:00 +34°C° 0 mm 1 mps 730 mmHg 22%
    11:00 +36°C° 0 mm 1 mps 729 mmHg 17%
    12:00 +39°C° 0 mm 2 mps 729 mmHg 13%
    13:00 +39°C° 0 mm 1 mps 728 mmHg 12%
    14:00 +39°C° 0 mm 1 mps 727 mmHg 11%
    15:00 +40°C° 0 mm 1 mps 727 mmHg 10%
    16:00 +37°C° 0 mm 1 mps 727 mmHg 11%
    17:00 +35°C° 0 mm 1 mps 727 mmHg 12%
    18:00 +33°C° 0 mm 1 mps 727 mmHg 12%
    19:00 +32°C° 0 mm 1 mps 728 mmHg 13%
    20:00 +32°C° 0 mm 1 mps 728 mmHg 13%
    21:00 +31°C° 0 mm 1 mps 729 mmHg 14%
    22:00 +30°C° 0 mm 1 mps 729 mmHg 14%
    23:00 +29°C° 0 mm 1 mps 728 mmHg 15%

    17 Diciembre, Lunes

    Tiempo Temperatura Precipitaciones Viento Presión Humedad
    00:00 +28°C° 0 mm 1 mps 728 mmHg 15%
    01:00 +28°C° 0 mm 1 mps 728 mmHg 18%
    02:00 +27°C° 0 mm 1 mps 728 mmHg 20%
    03:00 +26°C° 0 mm 1 mps 728 mmHg 22%
    04:00 +26°C° 0 mm 1 mps 728 mmHg 25%
    05:00 +25°C° 0 mm 1 mps 728 mmHg 27%
    06:00 +25°C° 0 mm 1 mps 729 mmHg 30%
    07:00 +27°C° 0 mm 2 mps 729 mmHg 31%
    08:00 +29°C° 0 mm 2 mps 730 mmHg 31%
    09:00 +31°C° 0 mm 2 mps 730 mmHg 32%
    10:00 +34°C° 0 mm 2 mps 730 mmHg 30%
    11:00 +36°C° 0 mm 2 mps 729 mmHg 27%
    12:00 +37°C° 0 mm 2 mps 729 mmHg 24%
    13:00 +38°C° 0 mm 2 mps 728 mmHg 22%
    14:00 +38°C° 0 mm 2 mps 727 mmHg 20%
    15:00 +39°C° 0 mm 1 mps 727 mmHg 19%
    16:00 +36°C° 0 mm 1 mps 727 mmHg 19%
    17:00 +35°C° 0 mm 1 mps 727 mmHg 20%
    18:00 +33°C° 0 mm 1 mps 727 mmHg 21%
    19:00 +33°C° 0 mm 1 mps 728 mmHg 21%
    20:00 +32°C° 0 mm 2 mps 729 mmHg 20%
    21:00 +31°C° 0 mm 2 mps 729 mmHg 19%
    22:00 +30°C° 0 mm 2 mps 729 mmHg 19%
    23:00 +30°C° 0 mm 2 mps 729 mmHg 20%
    Mostrar más